Location: Unspecified
(35.9148°N, 0.0000°E)
Time: 16:55:22
(UTC+00:00)

OTV 5 (USA 277) - Pass Details

Date: 02 June 2019
Orbit: 310 x 325 km, 54.5° (Epoch: 08 May)

Event Time Altitude Azimuth Distance (km) Brightness Sun altitude
Exits shadow 03:59:42 - 199° (SSW) 1,333 ? -8.6°
Reaches altitude 10° 03:59:57 10° 197° (SSW) 1,231 ? -8.5°
Maximum altitude 04:02:29 34° 130° (SE) 556 ? -8.1°
Drops below altitude 10° 04:05:01 10° 62° (ENE) 1,236 ? -7.7°
Sets 04:07:05 0° 53° (NE) 2,070 ? -7.3°
